M I D A S
Marine Information and Data Acquisition System
Tripno 1743 of the Zeeleeuw from 2009-07-31 09:58:22 to 2009-07-31 15:18:02
Back to CruiseResearch ActivitiesStationsMapUnderway DataData graphs

EquipmentUnitsComments
TimeDGPSUTC
LatitudeDGPSDM.mWGS84
LongitudeDGPSDM.mWGS84
SpeedMeteo Stationm/sRelative wind speed
DirectionMeteo StationdegRelative wind direction
TemperatureMeteo Stationdeg CelciusAir temperature
PressureMeteo StationPaAtmospheric pressure
HumidityMeteo Station%Relative humidity
Missing or incorrect values are displayed as -999
Metereological data collected by the RV Zeeleeuw from 2009-07-31 07:15:07 to 2009-07-31 15:25:39
                                                                                    Next 1000 lines
Time Latitude Longitude Speed Direction Temperature Pressure Humidity
2009-07-31 07:15:17 51°13.664 2°55.96 3.4 4 13.4 102280 60
2009-07-31 07:15:22 51°13.664 2°55.96 3.1 348 13.4 102280 72
2009-07-31 07:15:27 51°13.664 2°55.96 2.9 356 13.4 102280 72
2009-07-31 07:15:32 51°13.664 2°55.96 2.6 345 13.4 102280 74
2009-07-31 07:15:37 51°13.664 2°55.96 2.9 348 13.4 102280 74
2009-07-31 07:15:42 51°13.664 2°55.96 3.8 347 13.4 102280 72
2009-07-31 07:15:47 51°13.665 2°55.96 2.3 358 13.4 102280 72
2009-07-31 07:15:53 51°13.665 2°55.96 3 349 13.4 102280 74
2009-07-31 07:15:57 51°13.665 2°55.96 2.9 352 13.4 102280 74
2009-07-31 07:16:02 51°13.665 2°55.96 2.3 353 13.4 102280 73
2009-07-31 07:16:07 51°13.665 2°55.961 3 346 13.4 102280 73
2009-07-31 07:16:12 51°13.665 2°55.961 3.6 346 13.4 102280 69
2009-07-31 07:16:17 51°13.665 2°55.96 4.1 344 13.4 102280 69
2009-07-31 07:16:22 51°13.665 2°55.961 3.1 341 13.5 102280 71
2009-07-31 07:16:27 51°13.665 2°55.961 1.6 349 13.5 102280 71
2009-07-31 07:16:32 51°13.665 2°55.961 2.3 351 13.5 102280 74
2009-07-31 07:16:37 51°13.665 2°55.961 3.1 352 13.5 102280 74
2009-07-31 07:16:42 51°13.665 2°55.961 3.5 347 13.4 102280 73
2009-07-31 07:16:47 51°13.665 2°55.961 3.2 354 13.4 102280 73
2009-07-31 07:16:52 51°13.665 2°55.961 3.2 354 13.5 102280 75
2009-07-31 07:16:57 51°13.665 2°55.961 3.2 353 13.5 102280 75
2009-07-31 07:17:02 51°13.665 2°55.961 3 348 13.5 102280 72
2009-07-31 07:17:08 51°13.665 2°55.961 2.6 350 13.5 102280 72
2009-07-31 07:17:12 51°13.665 2°55.961 2.8 350 13.5 102280 75
2009-07-31 07:17:17 51°13.665 2°55.96 2.9 344 13.5 102280 75
2009-07-31 07:17:22 51°13.665 2°55.96 3.1 347 13.4 102280 74
2009-07-31 07:17:27 51°13.665 2°55.96 2.7 350 13.4 102280 74
2009-07-31 07:17:32 51°13.665 2°55.96 3 349 13.5 102280 74
2009-07-31 07:17:37 51°13.665 2°55.96 3.2 356 13.5 102280 74
2009-07-31 07:17:42 51°13.665 2°55.96 2.5 1 13.5 102280 72
2009-07-31 07:17:47 51°13.665 2°55.96 2.5 355 13.5 102280 72
2009-07-31 07:17:52 51°13.665 2°55.96 3.1 351 13.5 102280 75
2009-07-31 07:17:57 51°13.665 2°55.96 2.3 347 13.5 102280 75
2009-07-31 07:18:02 51°13.665 2°55.96 2.7 354 13.5 102280 75
2009-07-31 07:18:07 51°13.665 2°55.96 2.4 354 13.5 102280 75
2009-07-31 07:18:12 51°13.665 2°55.96 2.2 353 13.5 102280 73
2009-07-31 07:18:17 51°13.665 2°55.96 2.4 354 13.5 102280 73
2009-07-31 07:18:22 51°13.665 2°55.96 2.6 354 13.5 102280 75
2009-07-31 07:18:27 51°13.665 2°55.96 2.4 359 13.5 102280 75
2009-07-31 07:18:33 51°13.665 2°55.96 1.9 359 13.5 102280 75
2009-07-31 07:18:37 51°13.665 2°55.96 2.7 346 13.5 102280 75
2009-07-31 07:18:42 51°13.665 2°55.96 3 351 13.5 102280 73
2009-07-31 07:18:47 51°13.665 2°55.96 2.9 358 13.5 102280 73
2009-07-31 07:18:52 51°13.665 2°55.96 2.4 11 13.5 102280 73
2009-07-31 07:18:57 51°13.664 2°55.96 3.6 7 13.5 102280 73
2009-07-31 07:19:02 51°13.664 2°55.96 3.1 -999 13.5 102280 74
2009-07-31 07:19:07 51°13.664 2°55.96 2.1 6 13.5 102280 74
2009-07-31 07:19:12 51°13.664 2°55.96 2.2 357 13.5 102280 73
2009-07-31 07:19:17 51°13.664 2°55.96 3.1 351 13.5 102280 73
2009-07-31 07:19:22 51°13.664 2°55.96 3.2 356 13.5 102280 74
2009-07-31 07:19:27 51°13.665 2°55.96 2.9 357 13.5 102280 74
2009-07-31 07:19:32 51°13.665 2°55.96 3.4 357 13.5 102280 74
2009-07-31 07:19:37 51°13.664 2°55.96 3.2 355 13.5 102280 74
2009-07-31 07:19:42 51°13.665 2°55.96 3.4 2 13.5 102280 73
2009-07-31 07:19:47 51°13.665 2°55.96 3.2 356 13.5 102280 73
2009-07-31 07:19:52 51°13.665 2°55.96 3 359 13.5 102280 74
2009-07-31 07:19:57 51°13.665 2°55.959 3.1 360 13.5 102280 74
2009-07-31 07:20:02 51°13.664 2°55.959 2.9 355 13.5 102280 73
2009-07-31 07:20:07 51°13.664 2°55.959 2.2 -999 13.5 102280 73
2009-07-31 07:20:12 51°13.664 2°55.959 2.4 6 13.5 102280 59
2009-07-31 07:20:17 51°13.664 2°55.96 2.9 356 13.5 102280 59
2009-07-31 07:20:22 51°13.664 2°55.96 2.3 1 13.5 102280 61
2009-07-31 07:20:27 51°13.664 2°55.96 2.7 359 13.5 102280 61
2009-07-31 07:20:32 51°13.664 2°55.96 2.1 357 13.5 102280 71
2009-07-31 07:20:37 51°13.664 2°55.96 2.2 2 13.5 102280 71
2009-07-31 07:20:42 51°13.664 2°55.96 2.6 352 13.5 102280 72
2009-07-31 07:20:47 51°13.664 2°55.96 3 344 13.5 102280 72
2009-07-31 07:20:52 51°13.664 2°55.96 2.6 343 13.5 102280 71
2009-07-31 07:20:57 51°13.664 2°55.96 2.9 346 13.5 102280 71
2009-07-31 07:21:02 51°13.664 2°55.96 2.6 352 13.5 102290 75
2009-07-31 07:21:07 51°13.664 2°55.959 3.4 350 13.5 102290 75
2009-07-31 07:21:13 51°13.664 2°55.959 3 358 13.6 102290 74
2009-07-31 07:21:17 51°13.664 2°55.959 3 355 13.6 102290 74
2009-07-31 07:21:22 51°13.664 2°55.959 3 357 13.6 102280 73
2009-07-31 07:21:27 51°13.664 2°55.959 2.7 357 13.6 102280 73
2009-07-31 07:21:33 51°13.664 2°55.959 2.5 354 13.6 102280 76
2009-07-31 07:21:37 51°13.664 2°55.959 3.5 351 13.6 102280 76
2009-07-31 07:21:42 51°13.664 2°55.959 3.2 352 13.6 102280 75
2009-07-31 07:21:47 51°13.664 2°55.959 3.1 350 13.6 102280 75
2009-07-31 07:21:52 51°13.664 2°55.959 3.8 351 13.6 102280 74
2009-07-31 07:21:57 51°13.664 2°55.959 3.1 354 13.6 102280 74
2009-07-31 07:22:02 51°13.664 2°55.959 2.8 349 13.6 102280 61
2009-07-31 07:22:07 51°13.664 2°55.959 2.4 4 13.6 102280 61
2009-07-31 07:22:12 51°13.664 2°55.96 3.3 359 13.6 102280 61
2009-07-31 07:22:17 51°13.664 2°55.96 3 7 13.6 102280 61
2009-07-31 07:22:22 51°13.664 2°55.96 3.7 357 13.6 102280 60
2009-07-31 07:22:27 51°13.664 2°55.96 3.3 359 13.6 102280 60
2009-07-31 07:22:32 51°13.664 2°55.96 3.3 358 13.6 102280 69
2009-07-31 07:22:37 51°13.664 2°55.96 4.1 4 13.6 102280 69
2009-07-31 07:22:42 51°13.664 2°55.96 3.4 356 13.6 102280 71
2009-07-31 07:22:47 51°13.664 2°55.96 2.8 355 13.6 102280 71
2009-07-31 07:22:52 51°13.664 2°55.96 2.3 350 13.6 102290 71
2009-07-31 07:22:57 51°13.664 2°55.96 2.7 352 13.6 102290 71
2009-07-31 07:23:02 51°13.664 2°55.96 2.7 352 13.6 102280 72
2009-07-31 07:23:07 51°13.664 2°55.96 3.3 354 13.6 102280 72
2009-07-31 07:23:12 51°13.664 2°55.96 2.7 345 13.6 102290 70
2009-07-31 07:23:17 51°13.664 2°55.96 2.5 358 13.6 102290 70
2009-07-31 07:23:22 51°13.664 2°55.96 2.4 351 13.6 102280 70
2009-07-31 07:23:27 51°13.664 2°55.96 3.7 351 13.6 102280 70
2009-07-31 07:23:32 51°13.664 2°55.959 3.6 358 13.6 102280 70
2009-07-31 07:23:37 51°13.664 2°55.959 4 358 13.6 102280 70
2009-07-31 07:23:42 51°13.664 2°55.959 3.4 354 13.6 102290 68
2009-07-31 07:23:47 51°13.664 2°55.959 3.1 354 13.6 102290 68
2009-07-31 07:23:52 51°13.664 2°55.959 3.4 359 13.6 102290 68
2009-07-31 07:23:57 51°13.664 2°55.959 4.2 353 13.6 102290 68
2009-07-31 07:24:03 51°13.664 2°55.959 3.7 348 13.6 102280 69
2009-07-31 07:24:07 51°13.664 2°55.96 3.7 353 13.6 102280 69
2009-07-31 07:24:12 51°13.664 2°55.96 3.6 354 13.6 102290 71
2009-07-31 07:24:17 51°13.664 2°55.96 3.4 357 13.6 102290 71
2009-07-31 07:24:22 51°13.664 2°55.96 2.7 360 13.6 102290 68
2009-07-31 07:24:27 51°13.664 2°55.96 2.3 354 13.6 102290 68
2009-07-31 07:24:32 51°13.664 2°55.96 2.7 355 13.6 102280 70
2009-07-31 07:24:37 51°13.664 2°55.959 2.9 358 13.6 102280 70
2009-07-31 07:24:42 51°13.664 2°55.96 3.5 347 13.6 102290 70
2009-07-31 07:24:47 51°13.664 2°55.959 2.9 344 13.6 102290 70
2009-07-31 07:24:52 51°13.664 2°55.959 3.3 347 13.5 102290 71
2009-07-31 07:24:57 51°13.662 2°55.958 4 357 13.5 102290 71
2009-07-31 07:25:02 51°13.661 2°55.958 4.6 358 13.5 102280 68
2009-07-31 07:25:07 51°13.66 2°55.958 3.1 346 13.5 102280 68
2009-07-31 07:25:12 51°13.661 2°55.958 3.3 352 13.6 102280 70
2009-07-31 07:25:17 51°13.662 2°55.959 3.2 356 13.6 102280 70
2009-07-31 07:25:22 51°13.662 2°55.959 3 345 13.6 102290 70
2009-07-31 07:25:27 51°13.663 2°55.959 4.2 352 13.6 102290 70
2009-07-31 07:25:32 51°13.663 2°55.959 3.6 353 13.6 102290 70
2009-07-31 07:25:37 51°13.663 2°55.959 2.7 352 13.6 102290 70
2009-07-31 07:25:42 51°13.663 2°55.959 2.5 350 13.6 102280 68
2009-07-31 07:25:47 51°13.662 2°55.959 2.9 352 13.6 102280 68
2009-07-31 07:25:52 51°13.662 2°55.959 1.9 352 13.5 102280 68
2009-07-31 07:25:57 51°13.661 2°55.958 3.2 353 13.5 102280 68
2009-07-31 07:26:02 51°13.661 2°55.958 3.1 356 13.5 102290 69
2009-07-31 07:26:07 51°13.661 2°55.958 3.4 351 13.5 102290 69
2009-07-31 07:26:12 51°13.66 2°55.958 3 352 13.5 102290 69
2009-07-31 07:26:17 51°13.66 2°55.958 3.1 352 13.5 102290 69
2009-07-31 07:26:22 51°13.66 2°55.958 3.7 354 13.5 102290 71
2009-07-31 07:26:27 51°13.66 2°55.958 2.8 356 13.5 102290 71
2009-07-31 07:26:33 51°13.66 2°55.958 3.2 357 13.5 102290 70
2009-07-31 07:26:37 51°13.66 2°55.958 3.4 357 13.5 102290 70
2009-07-31 07:26:43 51°13.661 2°55.959 2.7 358 13.5 102290 70
2009-07-31 07:26:47 51°13.661 2°55.959 2.3 5 13.5 102290 70
2009-07-31 07:26:52 51°13.662 2°55.96 2.3 5 13.5 102290 72
2009-07-31 07:26:57 51°13.662 2°55.96 2.7 343 13.5 102290 72
2009-07-31 07:27:03 51°13.663 2°55.96 3.1 347 13.5 102280 70
2009-07-31 07:27:07 51°13.663 2°55.96 2.2 348 13.5 102280 70
2009-07-31 07:27:12 51°13.663 2°55.96 1.9 351 13.5 102290 69
2009-07-31 07:27:17 51°13.663 2°55.96 3.3 357 13.5 102290 69
2009-07-31 07:27:22 51°13.662 2°55.96 2.8 356 13.6 102290 71
2009-07-31 07:27:27 51°13.662 2°55.96 2.8 349 13.6 102290 71
2009-07-31 07:27:32 51°13.662 2°55.96 3.1 354 13.6 102290 70
2009-07-31 07:27:37 51°13.662 2°55.96 3 353 13.6 102290 70
2009-07-31 07:27:42 51°13.662 2°55.96 2.5 354 13.6 102290 71
2009-07-31 07:27:47 51°13.662 2°55.96 2.4 355 13.6 102290 71
2009-07-31 07:27:52 51°13.662 2°55.959 2.4 354 13.6 102290 70
2009-07-31 07:27:57 51°13.661 2°55.959 2.1 1 13.6 102290 70
2009-07-31 07:28:02 51°13.661 2°55.958 2.9 352 13.6 102290 69
2009-07-31 07:28:07 51°13.661 2°55.959 2.7 351 13.6 102290 69
2009-07-31 07:28:12 51°13.662 2°55.959 3.3 347 13.6 102290 69
2009-07-31 07:28:17 51°13.663 2°55.96 3.1 344 13.6 102290 69
2009-07-31 07:28:22 51°13.663 2°55.96 2.8 352 13.6 102290 69
2009-07-31 07:28:27 51°13.664 2°55.96 2.5 2 13.6 102290 69
2009-07-31 07:28:32 51°13.664 2°55.96 2 359 13.6 102290 70
2009-07-31 07:28:37 51°13.664 2°55.96 3.2 1 13.6 102290 70
2009-07-31 07:28:42 51°13.664 2°55.96 3 357 13.6 102290 69
2009-07-31 07:28:47 51°13.664 2°55.96 2.8 355 13.6 102290 69
2009-07-31 07:28:53 51°13.664 2°55.96 2.5 355 13.6 102290 69
2009-07-31 07:28:57 51°13.663 2°55.96 2.6 -999 13.6 102290 69
2009-07-31 07:29:02 51°13.663 2°55.96 2.4 -999 13.6 102290 69
2009-07-31 07:29:07 51°13.663 2°55.959 2.6 360 13.6 102290 69
2009-07-31 07:29:13 51°13.663 2°55.959 1.9 -999 13.6 102290 68
2009-07-31 07:29:17 51°13.662 2°55.959 2.2 354 13.6 102290 68
2009-07-31 07:29:22 51°13.662 2°55.959 2.6 357 13.6 102290 70
2009-07-31 07:29:27 51°13.662 2°55.959 3.4 348 13.6 102290 70
2009-07-31 07:29:32 51°13.662 2°55.959 3.6 353 13.6 102290 71
2009-07-31 07:29:37 51°13.662 2°55.959 2.8 356 13.6 102290 71
2009-07-31 07:29:43 51°13.661 2°55.959 3.7 353 13.6 102280 69
2009-07-31 07:29:47 51°13.662 2°55.959 3.8 349 13.6 102280 69
2009-07-31 07:29:52 51°13.661 2°55.959 3.3 352 13.6 102290 67
2009-07-31 07:29:57 51°13.661 2°55.959 2.6 358 13.6 102290 67
2009-07-31 07:30:02 51°13.661 2°55.959 2.4 358 13.6 102290 70
2009-07-31 07:30:07 51°13.661 2°55.959 2.5 350 13.6 102290 70
2009-07-31 07:30:12 51°13.662 2°55.959 2.3 352 13.7 102290 70
2009-07-31 07:30:17 51°13.662 2°55.959 3.2 348 13.7 102290 70
2009-07-31 07:30:22 51°13.662 2°55.959 3.3 348 13.7 102290 70
2009-07-31 07:30:27 51°13.663 2°55.96 2.7 343 13.7 102290 70
2009-07-31 07:30:32 51°13.663 2°55.959 2.8 349 13.7 102290 69
2009-07-31 07:30:37 51°13.661 2°55.959 2.5 356 13.7 102290 69
2009-07-31 07:30:42 51°13.659 2°55.958 3.4 356 13.7 102290 67
2009-07-31 07:30:47 51°13.658 2°55.957 2.4 351 13.7 102290 67
2009-07-31 07:30:52 51°13.658 2°55.957 2.3 354 13.7 102290 68
2009-07-31 07:30:57 51°13.659 2°55.958 2.6 350 13.7 102290 68
2009-07-31 07:31:02 51°13.659 2°55.958 2.5 356 13.7 102280 70
2009-07-31 07:31:07 51°13.66 2°55.958 2.9 347 13.7 102280 70
2009-07-31 07:31:12 51°13.66 2°55.959 2.7 353 13.7 102290 68
2009-07-31 07:31:17 51°13.66 2°55.959 3.1 358 13.7 102290 68
2009-07-31 07:31:22 51°13.66 2°55.959 3.6 353 13.7 102280 67
2009-07-31 07:31:27 51°13.661 2°55.959 2.8 356 13.7 102280 67
2009-07-31 07:31:33 51°13.662 2°55.96 2.7 356 13.7 102280 66
2009-07-31 07:31:37 51°13.663 2°55.96 3 355 13.7 102280 66
2009-07-31 07:31:42 51°13.662 2°55.96 3.3 355 13.7 102290 68
2009-07-31 07:31:47 51°13.661 2°55.959 2.9 356 13.7 102290 68
2009-07-31 07:31:53 51°13.66 2°55.959 2.8 356 13.7 102290 68
2009-07-31 07:31:57 51°13.659 2°55.958 3.2 352 13.7 102290 68
2009-07-31 07:32:02 51°13.659 2°55.959 3.1 350 13.7 102290 69
2009-07-31 07:32:07 51°13.66 2°55.959 2.1 345 13.7 102290 69
2009-07-31 07:32:13 51°13.66 2°55.959 3 348 13.7 102290 69
2009-07-31 07:32:17 51°13.66 2°55.959 3.4 350 13.7 102290 69
2009-07-31 07:32:23 51°13.661 2°55.959 3.7 349 13.7 102290 71
2009-07-31 07:32:27 51°13.661 2°55.959 3.1 356 13.7 102290 71
2009-07-31 07:32:32 51°13.661 2°55.959 2.8 350 13.7 102290 70
2009-07-31 07:32:37 51°13.662 2°55.959 4 354 13.7 102290 70
2009-07-31 07:32:42 51°13.662 2°55.959 3.6 352 13.7 102290 69
2009-07-31 07:32:47 51°13.662 2°55.96 3.5 348 13.7 102290 69
2009-07-31 07:32:52 51°13.662 2°55.96 2.9 350 13.7 102290 67
2009-07-31 07:32:57 51°13.662 2°55.96 3.4 358 13.7 102290 67
2009-07-31 07:33:02 51°13.662 2°55.96 2.5 350 13.7 102280 68
2009-07-31 07:33:07 51°13.662 2°55.96 2.9 352 13.7 102280 68
2009-07-31 07:33:12 51°13.662 2°55.96 2.5 353 13.7 102290 69
2009-07-31 07:33:17 51°13.662 2°55.96 3.4 354 13.7 102290 69
2009-07-31 07:33:22 51°13.662 2°55.959 3.2 350 13.7 102290 70
2009-07-31 07:33:27 51°13.662 2°55.959 3.5 355 13.7 102290 70
2009-07-31 07:33:32 51°13.662 2°55.959 3 353 13.7 102290 68
2009-07-31 07:33:37 51°13.662 2°55.959 2.3 353 13.7 102290 68
2009-07-31 07:33:42 51°13.662 2°55.959 2.6 349 13.7 102290 68
2009-07-31 07:33:47 51°13.662 2°55.96 3.2 354 13.7 102290 68
2009-07-31 07:33:52 51°13.664 2°55.961 2.9 352 13.7 102290 69
2009-07-31 07:33:57 51°13.665 2°55.962 2.8 353 13.7 102290 69
2009-07-31 07:34:02 51°13.666 2°55.962 2.6 350 13.7 102290 67
2009-07-31 07:34:07 51°13.666 2°55.962 2.7 356 13.7 102290 67
2009-07-31 07:34:12 51°13.666 2°55.962 2.1 353 13.7 102290 68
2009-07-31 07:34:17 51°13.666 2°55.962 1.9 358 13.7 102290 68
2009-07-31 07:34:22 51°13.665 2°55.962 1.7 3 13.7 102290 69
2009-07-31 07:34:27 51°13.665 2°55.961 1.6 356 13.7 102290 69
2009-07-31 07:34:33 51°13.663 2°55.96 2.2 359 13.7 102290 69
2009-07-31 07:34:37 51°13.661 2°55.959 2.2 360 13.7 102290 69
2009-07-31 07:34:42 51°13.661 2°55.959 2.9 360 13.7 102290 68
2009-07-31 07:34:47 51°13.661 2°55.959 2.6 357 13.7 102290 68
2009-07-31 07:34:52 51°13.661 2°55.959 2.2 359 13.7 102290 69
2009-07-31 07:34:57 51°13.661 2°55.959 2.4 348 13.7 102290 69
2009-07-31 07:35:03 51°13.661 2°55.96 2 353 13.7 102290 68
2009-07-31 07:35:07 51°13.661 2°55.96 3.2 346 13.7 102290 68
2009-07-31 07:35:12 51°13.661 2°55.96 3.1 343 13.7 102290 66
2009-07-31 07:35:17 51°13.662 2°55.96 2.7 347 13.7 102290 66
2009-07-31 07:35:22 51°13.663 2°55.961 3.7 343 13.7 102290 70
2009-07-31 07:35:27 51°13.664 2°55.962 3.2 347 13.7 102290 70
2009-07-31 07:35:32 51°13.665 2°55.962 3 348 13.7 102290 69
2009-07-31 07:35:37 51°13.664 2°55.962 3 354 13.7 102290 69
2009-07-31 07:35:42 51°13.663 2°55.961 2.5 353 13.7 102290 70
2009-07-31 07:35:47 51°13.663 2°55.961 3.1 341 13.7 102290 70
2009-07-31 07:35:52 51°13.663 2°55.961 3.2 349 13.7 102290 68
2009-07-31 07:35:57 51°13.662 2°55.96 3.4 354 13.7 102290 68
2009-07-31 07:36:02 51°13.662 2°55.96 3 343 13.7 102290 67
2009-07-31 07:36:07 51°13.662 2°55.96 3.3 345 13.7 102290 67
2009-07-31 07:36:12 51°13.662 2°55.961 3.1 348 13.7 102290 70
2009-07-31 07:36:17 51°13.663 2°55.961 3.6 351 13.7 102290 70
2009-07-31 07:36:22 51°13.663 2°55.961 3.1 350 13.8 102290 67
2009-07-31 07:36:27 51°13.663 2°55.961 3.2 348 13.8 102290 67
2009-07-31 07:36:32 51°13.663 2°55.961 2.7 348 13.7 102290 70
2009-07-31 07:36:37 51°13.662 2°55.961 2.8 352 13.7 102290 70
2009-07-31 07:36:42 51°13.661 2°55.96 2.4 352 13.8 102290 71
2009-07-31 07:36:47 51°13.66 2°55.959 2.4 345 13.8 102290 71
2009-07-31 07:36:52 51°13.66 2°55.959 2.8 345 13.7 102290 68
2009-07-31 07:36:57 51°13.661 2°55.96 2.1 347 13.7 102290 68
2009-07-31 07:37:02 51°13.661 2°55.96 2.2 350 13.7 102290 67
2009-07-31 07:37:07 51°13.661 2°55.96 2.5 353 13.7 102290 67
2009-07-31 07:37:12 51°13.664 2°55.961 2.4 356 13.7 102290 70
2009-07-31 07:37:17 51°13.662 2°55.961 1.8 353 13.7 102290 70
2009-07-31 07:37:22 51°13.662 2°55.96 1.9 352 13.8 102290 71
2009-07-31 07:37:27 51°13.661 2°55.96 2.1 348 13.8 102290 71
2009-07-31 07:37:33 51°13.661 2°55.96 2.1 352 13.7 102290 70
2009-07-31 07:37:37 51°13.661 2°55.96 2.3 353 13.7 102290 70
2009-07-31 07:37:43 51°13.661 2°55.96 2.4 357 13.8 102290 68
2009-07-31 07:37:47 51°13.661 2°55.96 2 350 13.8 102290 68
2009-07-31 07:37:52 51°13.661 2°55.96 2 351 13.8 102290 71
2009-07-31 07:37:57 51°13.661 2°55.96 1.5 349 13.8 102290 71
2009-07-31 07:38:03 51°13.662 2°55.96 1.4 349 13.8 102290 71
2009-07-31 07:38:07 51°13.662 2°55.96 1.2 346 13.8 102290 71
2009-07-31 07:38:12 51°13.662 2°55.96 2.1 351 13.8 102290 68
2009-07-31 07:38:17 51°13.662 2°55.96 1.8 345 13.8 102290 68
2009-07-31 07:38:22 51°13.662 2°55.96 2.3 346 13.8 102290 73
2009-07-31 07:38:27 51°13.663 2°55.961 2.3 354 13.8 102290 73
2009-07-31 07:38:32 51°13.663 2°55.961 2.3 353 13.8 102290 70
2009-07-31 07:38:37 51°13.663 2°55.961 2 -999 13.8 102290 70
2009-07-31 07:38:42 51°13.664 2°55.961 2 350 13.8 102290 69
2009-07-31 07:38:48 51°13.663 2°55.961 1.7 349 13.8 102290 69
2009-07-31 07:38:52 51°13.662 2°55.961 1.9 350 13.8 102290 70
2009-07-31 07:38:57 51°13.662 2°55.96 2.1 354 13.8 102290 70
2009-07-31 07:39:02 51°13.662 2°55.96 1.8 354 13.8 102290 68
2009-07-31 07:39:07 51°13.661 2°55.96 2 355 13.8 102290 68
2009-07-31 07:39:12 51°13.662 2°55.96 2.3 358 13.8 102290 71
2009-07-31 07:39:17 51°13.662 2°55.96 2.2 353 13.8 102290 71
2009-07-31 07:39:22 51°13.663 2°55.961 2.1 352 13.8 102290 71
2009-07-31 07:39:27 51°13.664 2°55.961 1.9 356 13.8 102290 71
2009-07-31 07:39:32 51°13.664 2°55.961 2.1 357 13.8 102290 68
2009-07-31 07:39:37 51°13.663 2°55.961 2.2 355 13.8 102290 68
2009-07-31 07:39:42 51°13.662 2°55.96 2.2 358 13.8 102290 67
2009-07-31 07:39:47 51°13.662 2°55.96 1.8 356 13.8 102290 67
2009-07-31 07:39:52 51°13.662 2°55.96 2 357 13.8 102290 67
2009-07-31 07:39:57 51°13.662 2°55.96 1.4 354 13.8 102290 67
2009-07-31 07:40:02 51°13.662 2°55.96 1.8 348 13.9 102290 62
2009-07-31 07:40:07 51°13.662 2°55.96 2 350 13.9 102290 62
2009-07-31 07:40:12 51°13.662 2°55.96 2.2 352 13.9 102290 59
2009-07-31 07:40:17 51°13.662 2°55.96 1.9 1 13.9 102290 59
2009-07-31 07:40:22 51°13.662 2°55.96 2.2 360 13.8 102290 60
2009-07-31 07:40:27 51°13.662 2°55.96 1.9 360 13.8 102290 60
2009-07-31 07:40:32 51°13.662 2°55.96 2.1 -999 13.9 102290 58
2009-07-31 07:40:37 51°13.662 2°55.96 2.2 353 13.9 102290 58
2009-07-31 07:40:42 51°13.662 2°55.96 1.7 2 13.8 102290 61
2009-07-31 07:40:47 51°13.662 2°55.96 2.2 349 13.8 102290 61
2009-07-31 07:40:52 51°13.662 2°55.96 2.5 349 13.8 102290 68
2009-07-31 07:40:57 51°13.662 2°55.96 2.7 342 13.8 102290 68
2009-07-31 07:41:02 51°13.662 2°55.96 2.8 343 13.9 102290 68
2009-07-31 07:41:07 51°13.662 2°55.96 2 351 13.9 102290 68
2009-07-31 07:41:12 51°13.662 2°55.96 2.2 346 13.9 102290 69
2009-07-31 07:41:17 51°13.662 2°55.96 1.5 349 13.9 102290 69
2009-07-31 07:41:22 51°13.663 2°55.96 1.8 350 13.9 102290 68
2009-07-31 07:41:27 51°13.662 2°55.96 2 346 13.9 102290 68
2009-07-31 07:41:32 51°13.662 2°55.96 1.8 350 13.9 102290 69
2009-07-31 07:41:37 51°13.662 2°55.96 2.3 355 13.9 102290 69
2009-07-31 07:41:42 51°13.663 2°55.96 2.2 356 13.9 102290 70
2009-07-31 07:41:47 51°13.663 2°55.96 2.2 355 13.9 102290 70
2009-07-31 07:41:52 51°13.663 2°55.96 1.7 356 13.9 102290 69
2009-07-31 07:41:57 51°13.663 2°55.96 1.6 357 13.9 102290 69
2009-07-31 07:42:02 51°13.663 2°55.96 1.9 360 13.9 102290 69
2009-07-31 07:42:07 51°13.662 2°55.96 1.9 355 13.9 102290 69
2009-07-31 07:42:12 51°13.662 2°55.96 2.6 347 14 102290 68
2009-07-31 07:42:17 51°13.662 2°55.96 2.3 355 14 102290 68
2009-07-31 07:42:22 51°13.662 2°55.96 2.6 355 14 102290 67
2009-07-31 07:42:27 51°13.662 2°55.96 2 354 14 102290 67
2009-07-31 07:42:32 51°13.662 2°55.96 2.3 348 14 102290 70
2009-07-31 07:42:37 51°13.662 2°55.96 2.2 347 14 102290 70
2009-07-31 07:42:42 51°13.662 2°55.96 2.6 352 14 102290 71
2009-07-31 07:42:47 51°13.662 2°55.96 2.5 346 14 102290 71
2009-07-31 07:42:52 51°13.662 2°55.96 2.8 349 14 102300 68
2009-07-31 07:42:57 51°13.662 2°55.96 2.7 356 14 102300 68
2009-07-31 07:43:02 51°13.662 2°55.96 2.7 356 14 102290 71
2009-07-31 07:43:07 51°13.662 2°55.96 2.7 350 14 102290 71
2009-07-31 07:43:12 51°13.662 2°55.96 2.8 348 14 102300 70
2009-07-31 07:43:17 51°13.662 2°55.96 2.6 349 14 102300 70
2009-07-31 07:43:22 51°13.662 2°55.96 2.6 350 14 102300 70
2009-07-31 07:43:27 51°13.662 2°55.96 2.2 355 14 102300 70
2009-07-31 07:43:32 51°13.662 2°55.96 2.2 356 14 102300 73
2009-07-31 07:43:37 51°13.662 2°55.96 2.8 348 14 102300 73
2009-07-31 07:43:42 51°13.662 2°55.96 2.3 344 14 102300 71
2009-07-31 07:43:47 51°13.662 2°55.96 2.3 349 14 102300 71
2009-07-31 07:43:52 51°13.662 2°55.96 2.3 351 14 102290 72
2009-07-31 07:43:57 51°13.662 2°55.96 2.5 348 14 102290 72
2009-07-31 07:44:02 51°13.662 2°55.96 2.5 353 14 102300 71
2009-07-31 07:44:07 51°13.662 2°55.959 2.8 348 14 102300 71
2009-07-31 07:44:12 51°13.662 2°55.959 3.2 352 14 102300 71
2009-07-31 07:44:17 51°13.662 2°55.959 2.2 351 14 102300 71
2009-07-31 07:44:22 51°13.662 2°55.959 2.7 351 14 102300 70
2009-07-31 07:44:27 51°13.662 2°55.959 2.7 353 14 102300 70
2009-07-31 07:44:32 51°13.662 2°55.959 2.5 350 14 102300 70
2009-07-31 07:44:37 51°13.662 2°55.959 2.1 352 14 102300 70
2009-07-31 07:44:42 51°13.662 2°55.959 2.3 343 14.1 102300 69
2009-07-31 07:44:47 51°13.662 2°55.959 1.6 350 14.1 102300 69
2009-07-31 07:44:51 51°13.662 2°55.959 1.8 354 14.1 102300 71
2009-07-31 07:44:57 51°13.662 2°55.959 1.8 357 14.1 102300 71
2009-07-31 07:45:02 51°13.662 2°55.959 1.9 3 14.1 102300 68
2009-07-31 07:45:07 51°13.662 2°55.959 1.5 5 14.1 102300 68
2009-07-31 07:45:12 51°13.662 2°55.959 1.5 4 14.1 102300 69
2009-07-31 07:45:17 51°13.662 2°55.959 2.4 23 14.1 102300 69
2009-07-31 07:45:22 51°13.662 2°55.959 2.3 24 14.1 102300 72
2009-07-31 07:45:27 51°13.662 2°55.959 1.4 28 14.1 102300 72
2009-07-31 07:45:32 51°13.662 2°55.959 1.9 11 14.2 102300 69
2009-07-31 07:45:37 51°13.662 2°55.959 1.9 3 14.2 102300 69
2009-07-31 07:45:42 51°13.662 2°55.959 1.5 359 14.2 102300 67
2009-07-31 07:45:47 51°13.662 2°55.959 1.6 11 14.2 102300 67
2009-07-31 07:45:52 51°13.662 2°55.959 1.5 8 14.2 102300 68
2009-07-31 07:45:57 51°13.662 2°55.959 1.3 19 14.2 102300 68
2009-07-31 07:46:02 51°13.662 2°55.959 1.6 16 14.2 102300 69
2009-07-31 07:46:07 51°13.662 2°55.959 1.4 15 14.2 102300 69
2009-07-31 07:46:12 51°13.662 2°55.959 1.4 15 14.2 102300 72
2009-07-31 07:46:17 51°13.662 2°55.959 1.6 353 14.2 102300 72
2009-07-31 07:46:22 51°13.662 2°55.959 1.1 353 14.2 102300 73
2009-07-31 07:46:27 51°13.662 2°55.959 1.5 357 14.2 102300 73
2009-07-31 07:46:32 51°13.662 2°55.959 1.2 354 14.2 102300 73
2009-07-31 07:46:38 51°13.662 2°55.959 1.9 359 14.2 102300 73
2009-07-31 07:46:42 51°13.662 2°55.959 2.2 350 14.3 102300 74
2009-07-31 07:46:46 51°13.662 2°55.959 2.5 356 14.3 102300 74
2009-07-31 07:46:52 51°13.662 2°55.959 2.4 355 14.3 102300 73
2009-07-31 07:46:56 51°13.662 2°55.959 3.2 347 14.3 102300 73
2009-07-31 07:47:02 51°13.663 2°55.959 3.1 348 14.3 102300 74
2009-07-31 07:47:06 51°13.663 2°55.959 2.4 1 14.3 102300 74
2009-07-31 07:47:13 51°13.663 2°55.959 1.9 15 14.3 102300 75
2009-07-31 07:47:18 51°13.663 2°55.959 1.7 357 14.3 102300 75
2009-07-31 07:47:22 51°13.663 2°55.959 1.3 356 14.3 102300 75
2009-07-31 07:47:26 51°13.663 2°55.959 1.5 358 14.3 102300 75
2009-07-31 07:47:33 51°13.663 2°55.959 2 8 14.3 102300 72
2009-07-31 07:47:37 51°13.663 2°55.959 1.9 360 14.3 102300 72
2009-07-31 07:47:42 51°13.663 2°55.959 2 10 14.3 102300 73
2009-07-31 07:47:48 51°13.663 2°55.959 2.6 360 14.3 102300 73
2009-07-31 07:47:53 51°13.663 2°55.959 2.3 350 14.3 102300 71
2009-07-31 07:47:58 51°13.663 2°55.959 2.1 1 14.3 102300 71
2009-07-31 07:48:02 51°13.663 2°55.959 2.6 -999 14.3 102300 72
2009-07-31 07:48:08 51°13.663 2°55.959 2.9 360 14.3 102300 72
2009-07-31 07:48:13 51°13.663 2°55.959 3.5 359 14.3 102300 61
2009-07-31 07:48:18 51°13.663 2°55.959 3.3 358 14.3 102300 61
2009-07-31 07:48:22 51°13.663 2°55.959 3.1 357 14.3 102300 69
2009-07-31 07:48:28 51°13.663 2°55.959 3.3 1 14.3 102300 69
2009-07-31 07:48:33 51°13.663 2°55.959 3.3 356 14.3 102300 69
2009-07-31 07:48:38 51°13.663 2°55.959 3.3 355 14.3 102300 69
2009-07-31 07:48:42 51°13.663 2°55.959 3.4 358 14.3 102300 72
2009-07-31 07:48:48 51°13.663 2°55.959 3.3 357 14.3 102300 72
2009-07-31 07:48:52 51°13.663 2°55.959 2.6 358 14.3 102300 71
2009-07-31 07:48:56 51°13.663 2°55.959 2.6 355 14.3 102300 71
2009-07-31 07:49:01 51°13.663 2°55.959 3 355 14.3 102310 69
2009-07-31 07:49:07 51°13.663 2°55.959 3.3 352 14.3 102310 69
2009-07-31 07:49:11 51°13.663 2°55.959 2.8 349 14.3 102300 72
2009-07-31 07:49:16 51°13.663 2°55.959 2.9 353 14.3 102300 72
2009-07-31 07:49:21 51°13.663 2°55.959 3.1 353 14.3 102310 70
2009-07-31 07:49:27 51°13.663 2°55.959 2.9 355 14.3 102310 70
2009-07-31 07:49:32 51°13.663 2°55.959 3.2 353 14.3 102310 68
2009-07-31 07:49:37 51°13.663 2°55.959 3.3 346 14.3 102310 68
2009-07-31 07:49:42 51°13.663 2°55.959 2.8 346 14.3 102300 69
2009-07-31 07:49:46 51°13.663 2°55.959 3.6 357 14.3 102300 69
2009-07-31 07:49:52 51°13.663 2°55.959 3 357 14.3 102310 68
2009-07-31 07:49:56 51°13.663 2°55.959 2.8 357 14.3 102310 68
2009-07-31 07:50:02 51°13.663 2°55.959 2.3 1 14.3 102310 70
2009-07-31 07:50:06 51°13.663 2°55.959 2.7 360 14.3 102310 70
2009-07-31 07:50:12 51°13.663 2°55.959 3.1 352 14.2 102310 71
2009-07-31 07:50:18 51°13.663 2°55.959 3.5 359 14.2 102310 71
2009-07-31 07:50:22 51°13.663 2°55.959 3.9 358 14.2 102300 72
2009-07-31 07:50:28 51°13.663 2°55.959 3 1 14.2 102300 72
2009-07-31 07:50:32 51°13.663 2°55.959 2.3 4 14.2 102310 71
2009-07-31 07:50:38 51°13.663 2°55.959 2.2 -999 14.2 102310 71
2009-07-31 07:50:42 51°13.663 2°55.959 1.8 3 14.2 102310 73
2009-07-31 07:50:48 51°13.663 2°55.959 1.7 10 14.2 102310 73
2009-07-31 07:50:52 51°13.663 2°55.959 1.4 8 14.2 102310 71
2009-07-31 07:50:58 51°13.663 2°55.959 1.7 8 14.2 102310 71
2009-07-31 07:51:02 51°13.663 2°55.959 2.2 1 14.2 102310 72
2009-07-31 07:51:08 51°13.663 2°55.959 1.9 1 14.2 102310 72
2009-07-31 07:51:12 51°13.663 2°55.959 2.2 356 14.2 102310 71
2009-07-31 07:51:18 51°13.663 2°55.959 2.3 357 14.2 102310 71
2009-07-31 07:51:22 51°13.663 2°55.959 2.4 -999 14.3 102310 72
2009-07-31 07:51:28 51°13.663 2°55.959 1.9 8 14.3 102310 72
2009-07-31 07:51:32 51°13.663 2°55.959 1.7 352 14.3 102310 71
2009-07-31 07:51:36 51°13.663 2°55.959 1.7 350 14.3 102310 71
2009-07-31 07:51:42 51°13.663 2°55.959 2.7 352 14.3 102300 72
2009-07-31 07:51:48 51°13.663 2°55.959 3 355 14.3 102300 72
2009-07-31 07:51:52 51°13.663 2°55.959 2.3 347 14.3 102310 70
2009-07-31 07:51:56 51°13.663 2°55.959 2.7 355 14.3 102310 70
2009-07-31 07:52:02 51°13.663 2°55.959 2.9 353 14.3 102310 69
2009-07-31 07:52:08 51°13.663 2°55.959 2.5 350 14.3 102310 69
2009-07-31 07:52:12 51°13.663 2°55.959 2.2 349 14.3 102310 70
2009-07-31 07:52:16 51°13.663 2°55.959 3.1 352 14.3 102310 70
2009-07-31 07:52:22 51°13.663 2°55.959 3.2 353 14.3 102310 68
2009-07-31 07:52:26 51°13.663 2°55.959 2.3 352 14.3 102310 68
2009-07-31 07:52:32 51°13.663 2°55.959 2.5 357 14.3 102310 68
2009-07-31 07:52:38 51°13.663 2°55.959 2.3 356 14.3 102310 68
2009-07-31 07:52:43 51°13.663 2°55.959 2.7 1 14.3 102310 69
2009-07-31 07:52:46 51°13.662 2°55.959 2.4 357 14.3 102310 69
2009-07-31 07:52:52 51°13.662 2°55.959 1.9 358 14.3 102310 69
2009-07-31 07:52:58 51°13.662 2°55.959 2 360 14.3 102310 69
2009-07-31 07:53:02 51°13.662 2°55.959 1.7 7 14.3 102300 68
2009-07-31 07:53:06 51°13.662 2°55.959 1.9 8 14.3 102300 68
2009-07-31 07:53:12 51°13.662 2°55.959 1.5 7 14.4 102310 66
2009-07-31 07:53:18 51°13.662 2°55.959 1.5 358 14.4 102310 66
2009-07-31 07:53:22 51°13.662 2°55.959 1.3 354 14.3 102310 68
2009-07-31 07:53:28 51°13.662 2°55.959 1.7 353 14.3 102310 68
2009-07-31 07:53:32 51°13.662 2°55.959 2.2 353 14.4 102310 66
2009-07-31 07:53:37 51°13.662 2°55.959 2.1 349 14.4 102310 66
2009-07-31 07:53:41 51°13.662 2°55.959 2.1 357 14.4 102310 69
2009-07-31 07:53:47 51°13.662 2°55.959 2.1 360 14.4 102310 69
2009-07-31 07:53:52 51°13.662 2°55.959 1.8 1 14.4 102310 69
2009-07-31 07:53:56 51°13.662 2°55.959 2.8 348 14.4 102310 69
2009-07-31 07:54:01 51°13.662 2°55.959 2.6 345 14.4 102310 68
2009-07-31 07:54:07 51°13.662 2°55.959 2.8 347 14.4 102310 68
2009-07-31 07:54:12 51°13.662 2°55.959 2.2 356 14.4 102310 71
2009-07-31 07:54:16 51°13.663 2°55.959 2.8 347 14.4 102310 71
2009-07-31 07:54:22 51°13.663 2°55.959 2.7 349 14.4 102310 70
2009-07-31 07:54:28 51°13.663 2°55.959 2.6 346 14.4 102310 70
2009-07-31 07:54:32 51°13.663 2°55.959 2.9 348 14.4 102310 68
2009-07-31 07:54:36 51°13.663 2°55.959 2.7 348 14.4 102310 68
2009-07-31 07:54:42 51°13.663 2°55.959 3.5 344 14.5 102310 68
2009-07-31 07:54:48 51°13.663 2°55.959 2.6 349 14.5 102310 68
2009-07-31 07:54:51 51°13.663 2°55.959 3.8 352 14.5 102310 69
2009-07-31 07:54:56 51°13.663 2°55.959 2.4 353 14.5 102310 69
2009-07-31 07:55:02 51°13.663 2°55.959 2.8 353 14.5 102310 70
2009-07-31 07:55:06 51°13.663 2°55.959 3.1 357 14.5 102310 70
2009-07-31 07:55:11 51°13.663 2°55.959 3.2 359 14.5 102310 70
2009-07-31 07:55:17 51°13.663 2°55.959 2.6 355 14.5 102310 70
2009-07-31 07:55:22 51°13.663 2°55.959 2.8 351 14.5 102310 68
2009-07-31 07:55:26 51°13.663 2°55.958 2.8 346 14.5 102310 68
2009-07-31 07:55:32 51°13.663 2°55.958 3 350 14.5 102310 69
2009-07-31 07:55:38 51°13.663 2°55.958 3.1 348 14.5 102310 69
2009-07-31 07:55:42 51°13.663 2°55.958 2.9 349 14.5 102310 69
2009-07-31 07:55:46 51°13.663 2°55.958 3.7 344 14.5 102310 69
2009-07-31 07:55:52 51°13.663 2°55.958 2.8 351 14.5 102310 68
2009-07-31 07:55:57 51°13.663 2°55.958 2.9 357 14.5 102310 68
2009-07-31 07:56:02 51°13.663 2°55.958 2.9 355 14.5 102310 70
2009-07-31 07:56:06 51°13.663 2°55.958 2.7 353 14.5 102310 70
2009-07-31 07:56:12 51°13.662 2°55.958 2.5 357 14.5 102310 71
2009-07-31 07:56:18 51°13.662 2°55.958 2.2 354 14.5 102310 71
2009-07-31 07:56:22 51°13.662 2°55.958 1.9 355 14.5 102310 70
2009-07-31 07:56:28 51°13.662 2°55.958 2.3 356 14.5 102310 70
2009-07-31 07:56:32 51°13.662 2°55.958 2.5 351 14.5 102310 69
2009-07-31 07:56:37 51°13.662 2°55.958 2.1 354 14.5 102310 69
2009-07-31 07:56:41 51°13.662 2°55.958 2.7 355 14.5 102310 70
2009-07-31 07:56:47 51°13.662 2°55.958 2.2 354 14.5 102310 70
2009-07-31 07:56:53 51°13.662 2°55.959 2.7 348 14.5 102310 70
2009-07-31 07:56:57 51°13.662 2°55.959 2.7 356 14.5 102310 70
2009-07-31 07:57:01 51°13.662 2°55.959 2.2 -999 14.5 102310 67
2009-07-31 07:57:07 51°13.663 2°55.959 1.5 5 14.5 102310 67
2009-07-31 07:57:12 51°13.663 2°55.959 2.1 358 14.5 102310 69
2009-07-31 07:57:16 51°13.663 2°55.959 3 354 14.5 102310 69
2009-07-31 07:57:22 51°13.663 2°55.959 2.8 355 14.6 102310 68
2009-07-31 07:57:27 51°13.662 2°55.959 2.8 351 14.6 102310 68
2009-07-31 07:57:32 51°13.662 2°55.959 3.2 349 14.6 102310 70
2009-07-31 07:57:36 51°13.662 2°55.959 3.4 356 14.6 102310 70
2009-07-31 07:57:42 51°13.662 2°55.959 3.3 351 14.6 102310 67
2009-07-31 07:57:47 51°13.662 2°55.959 2.6 351 14.6 102310 67
2009-07-31 07:57:51 51°13.662 2°55.959 2.7 351 14.6 102310 69
2009-07-31 07:57:57 51°13.663 2°55.959 3.2 353 14.6 102310 69
2009-07-31 07:58:02 51°13.663 2°55.959 3.5 352 14.6 102310 69
2009-07-31 07:58:06 51°13.663 2°55.959 2.7 354 14.6 102310 69
2009-07-31 07:58:12 51°13.663 2°55.959 2.8 357 14.6 102310 68
2009-07-31 07:58:17 51°13.663 2°55.959 2.6 358 14.6 102310 68
2009-07-31 07:58:22 51°13.663 2°55.959 3 351 14.6 102310 67
2009-07-31 07:58:26 51°13.663 2°55.959 2 357 14.6 102310 67
2009-07-31 07:58:32 51°13.663 2°55.959 2.3 354 14.6 102310 67
2009-07-31 07:58:37 51°13.663 2°55.959 2.4 -999 14.6 102310 67
2009-07-31 07:58:42 51°13.663 2°55.959 3.1 1 14.6 102310 67
2009-07-31 07:58:46 51°13.663 2°55.959 2.2 4 14.6 102310 67
2009-07-31 07:58:52 51°13.663 2°55.959 2.6 1 14.6 102310 66
2009-07-31 07:58:58 51°13.663 2°55.959 3 5 14.6 102310 66
2009-07-31 07:59:02 51°13.663 2°55.959 2.6 357 14.6 102310 69
2009-07-31 07:59:07 51°13.663 2°55.959 1.7 349 14.6 102310 69
2009-07-31 07:59:12 51°13.663 2°55.959 2.1 348 14.6 102310 65
2009-07-31 07:59:17 51°13.663 2°55.959 2 352 14.6 102310 65
2009-07-31 07:59:21 51°13.663 2°55.959 1.7 353 14.6 102310 67
2009-07-31 07:59:27 51°13.663 2°55.959 2.4 355 14.6 102310 67
2009-07-31 07:59:32 51°13.663 2°55.959 2.6 348 14.6 102310 67
2009-07-31 07:59:36 51°13.663 2°55.959 2.5 350 14.6 102310 67
2009-07-31 07:59:41 51°13.663 2°55.959 2.3 350 14.6 102310 68
2009-07-31 07:59:47 51°13.663 2°55.959 2.8 348 14.6 102310 68
2009-07-31 07:59:52 51°13.663 2°55.959 3.2 354 14.7 102310 67
2009-07-31 07:59:56 51°13.663 2°55.959 3.1 355 14.7 102310 67
2009-07-31 08:00:02 51°13.663 2°55.959 2.9 356 14.7 102310 69
2009-07-31 08:00:07 51°13.663 2°55.959 3.1 356 14.7 102310 69
2009-07-31 08:00:11 51°13.663 2°55.959 2.4 353 14.7 102310 70
2009-07-31 08:00:17 51°13.663 2°55.959 3.1 355 14.7 102310 70
2009-07-31 08:00:22 51°13.662 2°55.959 2 353 14.7 102310 69
2009-07-31 08:00:27 51°13.662 2°55.959 2.2 279 14.7 102310 69
2009-07-31 08:00:31 51°13.662 2°55.959 2.2 358 14.7 102310 68
2009-07-31 08:00:37 51°13.662 2°55.958 2.3 353 14.7 102310 68
2009-07-31 08:00:42 51°13.662 2°55.959 2 347 14.7 102310 68
2009-07-31 08:00:46 51°13.662 2°55.958 2.2 349 14.7 102310 68
2009-07-31 08:00:52 51°13.662 2°55.958 2.3 349 14.7 102310 66
2009-07-31 08:00:57 51°13.662 2°55.958 2.5 356 14.7 102310 66
2009-07-31 08:01:02 51°13.662 2°55.958 2.4 2 14.7 102310 68
2009-07-31 08:01:06 51°13.662 2°55.958 2.2 3 14.7 102310 68
2009-07-31 08:01:12 51°13.662 2°55.958 2.9 351 14.7 102310 69
2009-07-31 08:01:17 51°13.662 2°55.958 2.4 348 14.7 102310 69
2009-07-31 08:01:21 51°13.662 2°55.958 2.9 359 14.8 102310 67
2009-07-31 08:01:27 51°13.662 2°55.958 2.2 351 14.8 102310 67
2009-07-31 08:01:32 51°13.663 2°55.958 2.7 349 14.8 102310 66
2009-07-31 08:01:37 51°13.663 2°55.958 2.8 350 14.8 102310 66
2009-07-31 08:01:41 51°13.663 2°55.959 2.8 350 14.7 102310 66
2009-07-31 08:01:47 51°13.663 2°55.959 2.7 356 14.7 102310 66
2009-07-31 08:01:52 51°13.663 2°55.959 2.5 357 14.8 102310 70
2009-07-31 08:01:57 51°13.663 2°55.959 1.9 3 14.8 102310 70
2009-07-31 08:02:01 51°13.663 2°55.959 2.8 2 14.8 102310 70
2009-07-31 08:02:07 51°13.663 2°55.959 2.1 1 14.8 102310 70
2009-07-31 08:02:12 51°13.663 2°55.959 2.3 354 14.8 102310 67
2009-07-31 08:02:16 51°13.663 2°55.959 2.2 352 14.8 102310 67
2009-07-31 08:02:21 51°13.663 2°55.959 2.5 349 14.8 102310 65
2009-07-31 08:02:27 51°13.663 2°55.959 4.1 282 14.8 102310 65
2009-07-31 08:02:32 51°13.663 2°55.959 4 351 14.8 102310 65
2009-07-31 08:02:37 51°13.663 2°55.959 2.7 355 14.8 102310 65
2009-07-31 08:02:41 51°13.663 2°55.959 3 350 14.8 102310 69
2009-07-31 08:02:47 51°13.662 2°55.959 3.5 346 14.8 102310 69
2009-07-31 08:02:51 51°13.662 2°55.959 3.1 347 14.8 102310 67
2009-07-31 08:02:57 51°13.662 2°55.959 2.9 349 14.8 102310 67
2009-07-31 08:03:02 51°13.662 2°55.959 2.7 346 14.8 102310 69
2009-07-31 08:03:07 51°13.662 2°55.959 2.5 350 14.8 102310 69
2009-07-31 08:03:12 51°13.662 2°55.959 2.6 348 14.8 102310 68
2009-07-31 08:03:17 51°13.662 2°55.959 2.5 351 14.8 102310 68
2009-07-31 08:03:22 51°13.662 2°55.959 2.6 356 14.8 102310 66
2009-07-31 08:03:26 51°13.662 2°55.959 2.8 349 14.8 102310 66
2009-07-31 08:03:32 51°13.662 2°55.959 2 356 14.8 102310 67
2009-07-31 08:03:37 51°13.662 2°55.959 2.1 352 14.8 102310 67
2009-07-31 08:03:42 51°13.662 2°55.959 2.1 353 14.8 102310 67
2009-07-31 08:03:47 51°13.662 2°55.958 2.4 342 14.8 102310 67
2009-07-31 08:03:52 51°13.663 2°55.959 2.2 351 14.8 102310 68
2009-07-31 08:03:57 51°13.663 2°55.959 3 348 14.8 102310 68
2009-07-31 08:04:02 51°13.663 2°55.959 2.7 359 14.8 102310 69
2009-07-31 08:04:07 51°13.663 2°55.959 2.2 5 14.8 102310 69
2009-07-31 08:04:12 51°13.663 2°55.959 2.9 352 14.8 102310 69
2009-07-31 08:04:17 51°13.663 2°55.959 2 357 14.8 102310 69
2009-07-31 08:04:22 51°13.663 2°55.958 2.8 354 14.8 102310 68
2009-07-31 08:04:27 51°13.663 2°55.958 2.1 2 14.8 102310 68
2009-07-31 08:04:32 51°13.663 2°55.958 2.8 347 14.8 102310 67
2009-07-31 08:04:37 51°13.663 2°55.958 3.1 341 14.8 102310 67
2009-07-31 08:04:41 51°13.663 2°55.958 2.5 345 14.8 102310 68
2009-07-31 08:04:47 51°13.663 2°55.958 3 345 14.8 102310 68
2009-07-31 08:04:52 51°13.663 2°55.958 3 347 14.9 102310 66
2009-07-31 08:04:56 51°13.663 2°55.958 3.1 354 14.9 102310 66
2009-07-31 08:05:01 51°13.663 2°55.958 2.4 1 14.9 102310 69
2009-07-31 08:05:07 51°13.663 2°55.958 2 354 14.9 102310 69
2009-07-31 08:05:12 51°13.663 2°55.958 2.4 348 14.9 102310 68
2009-07-31 08:05:16 51°13.663 2°55.958 2.8 345 14.9 102310 68
2009-07-31 08:05:22 51°13.662 2°55.958 2.2 353 14.9 102310 67
2009-07-31 08:05:27 51°13.662 2°55.958 2.2 352 14.9 102310 67
2009-07-31 08:05:31 51°13.662 2°55.958 2.2 352 14.9 102310 65
2009-07-31 08:05:37 51°13.662 2°55.958 2 356 14.9 102310 65
2009-07-31 08:05:42 51°13.662 2°55.958 2.2 351 14.9 102310 65
2009-07-31 08:05:47 51°13.662 2°55.958 3.1 347 14.9 102310 65
2009-07-31 08:05:52 51°13.662 2°55.958 2.7 349 14.9 102310 67
2009-07-31 08:05:57 51°13.662 2°55.958 2.9 350 14.9 102310 67
2009-07-31 08:06:02 51°13.662 2°55.958 2.8 351 14.9 102310 67
2009-07-31 08:06:06 51°13.662 2°55.958 2.9 348 14.9 102310 67
2009-07-31 08:06:12 51°13.663 2°55.958 2.6 351 14.9 102310 67
2009-07-31 08:06:17 51°13.663 2°55.958 2.6 350 14.9 102310 67
2009-07-31 08:06:22 51°13.663 2°55.958 3.1 350 14.9 102310 67
2009-07-31 08:06:26 51°13.663 2°55.958 3 348 14.9 102310 67
2009-07-31 08:06:32 51°13.663 2°55.958 3.1 351 14.9 102310 67
2009-07-31 08:06:37 51°13.663 2°55.958 2.4 354 14.9 102310 67
2009-07-31 08:06:41 51°13.663 2°55.958 2.7 349 14.9 102310 66
2009-07-31 08:06:47 51°13.662 2°55.958 2.6 348 14.9 102310 66
2009-07-31 08:06:52 51°13.662 2°55.958 2.8 355 14.9 102310 65
2009-07-31 08:06:57 51°13.662 2°55.958 3.1 350 14.9 102310 65
2009-07-31 08:07:01 51°13.662 2°55.958 2.5 346 14.9 102310 69
2009-07-31 08:07:07 51°13.662 2°55.959 2.8 345 14.9 102310 69
2009-07-31 08:07:12 51°13.662 2°55.958 3.3 350 14.9 102310 66
2009-07-31 08:07:18 51°13.663 2°55.959 3.1 347 14.9 102310 66
2009-07-31 08:07:21 51°13.663 2°55.959 2.7 344 14.9 102310 68
2009-07-31 08:07:28 51°13.662 2°55.959 3.3 345 14.9 102310 68
2009-07-31 08:07:32 51°13.662 2°55.959 2.7 353 14.9 102310 69
2009-07-31 08:07:36 51°13.662 2°55.959 3.1 352 14.9 102310 69
2009-07-31 08:07:42 51°13.662 2°55.959 2.7 347 14.9 102310 69
2009-07-31 08:07:48 51°13.662 2°55.959 2.5 349 14.9 102310 69
2009-07-31 08:07:52 51°13.662 2°55.959 2.9 349 14.9 102310 68
2009-07-31 08:07:56 51°13.662 2°55.958 2.6 348 14.9 102310 68
2009-07-31 08:08:02 51°13.662 2°55.958 2.6 354 14.9 102310 66
2009-07-31 08:08:08 51°13.662 2°55.958 2.6 351 14.9 102310 66
2009-07-31 08:08:12 51°13.662 2°55.958 2.9 351 14.9 102310 66
2009-07-31 08:08:18 51°13.662 2°55.958 2.2 356 14.9 102310 66
2009-07-31 08:08:22 51°13.662 2°55.958 2.5 353 15 102310 67
2009-07-31 08:08:28 51°13.662 2°55.958 1.8 280 15 102310 67
2009-07-31 08:08:32 51°13.662 2°55.958 2.4 350 15 102310 67
2009-07-31 08:08:38 51°13.662 2°55.958 2.1 353 15 102310 67
2009-07-31 08:08:42 51°13.662 2°55.958 1.5 353 15 102310 65
2009-07-31 08:08:46 51°13.662 2°55.958 2 349 15 102310 65
2009-07-31 08:08:52 51°13.662 2°55.958 1.9 347 15 102310 65
2009-07-31 08:08:58 51°13.662 2°55.958 2.7 349 15 102310 65
2009-07-31 08:09:02 51°13.662 2°55.958 3.4 350 15 102310 69
2009-07-31 08:09:06 51°13.662 2°55.958 2.5 349 15 102310 69
2009-07-31 08:09:12 51°13.662 2°55.959 2.9 350 15 102310 68
2009-07-31 08:09:18 51°13.662 2°55.959 2.9 356 15 102310 68
2009-07-31 08:09:22 51°13.662 2°55.959 2.8 358 15 102310 66
2009-07-31 08:09:28 51°13.662 2°55.959 2.4 355 15 102310 66
2009-07-31 08:09:32 51°13.662 2°55.959 2.5 351 15 102310 68
2009-07-31 08:09:38 51°13.662 2°55.959 3.4 356 15 102310 68
2009-07-31 08:09:42 51°13.662 2°55.959 2.6 356 15 102310 65
2009-07-31 08:09:48 51°13.662 2°55.959 2.6 358 15 102310 65
2009-07-31 08:09:53 51°13.662 2°55.959 2.6 354 15 102310 68
2009-07-31 08:09:57 51°13.662 2°55.959 2 359 15 102310 68
2009-07-31 08:10:02 51°13.662 2°55.959 2.2 353 15 102310 64
2009-07-31 08:10:08 51°13.662 2°55.959 2.5 348 15 102310 64
2009-07-31 08:10:12 51°13.662 2°55.959 1.9 355 15 102310 66
2009-07-31 08:10:18 51°13.662 2°55.959 2.2 355 15 102310 66
2009-07-31 08:10:22 51°13.662 2°55.959 2.4 345 15 102310 66
2009-07-31 08:10:28 51°13.662 2°55.959 2.5 282 15 102310 66
2009-07-31 08:10:32 51°13.662 2°55.959 2.3 343 15 102300 65
2009-07-31 08:10:38 51°13.662 2°55.959 2.9 344 15 102300 65
2009-07-31 08:10:42 51°13.662 2°55.959 3 344 15 102310 66
2009-07-31 08:10:48 51°13.662 2°55.959 2 342 15 102310 66
2009-07-31 08:10:52 51°13.663 2°55.959 2.5 343 15 102300 67
2009-07-31 08:10:58 51°13.663 2°55.96 3.5 346 15 102300 67
2009-07-31 08:11:03 51°13.663 2°55.96 3.1 359 15.1 102300 65
2009-07-31 08:11:07 51°13.663 2°55.96 2.1 4 15.1 102300 65
2009-07-31 08:11:12 51°13.663 2°55.96 2.3 357 15.1 102300 65
2009-07-31 08:11:18 51°13.663 2°55.96 2.3 354 15.1 102300 65
2009-07-31 08:11:22 51°13.663 2°55.96 2.2 348 15.1 102300 68
2009-07-31 08:11:27 51°13.663 2°55.96 2.5 344 15.1 102300 68
2009-07-31 08:11:32 51°13.663 2°55.96 2 347 15.1 102300 68
2009-07-31 08:11:38 51°13.663 2°55.96 2.5 359 15.1 102300 68
2009-07-31 08:11:42 51°13.663 2°55.96 1.9 356 15.1 102300 69
2009-07-31 08:11:48 51°13.663 2°55.96 2.2 348 15.1 102300 69
2009-07-31 08:11:52 51°13.663 2°55.96 2.2 350 15.1 102300 68
2009-07-31 08:11:58 51°13.663 2°55.96 2 357 15.1 102300 68
2009-07-31 08:12:02 51°13.663 2°55.96 2.1 354 15.1 102300 69
2009-07-31 08:12:08 51°13.663 2°55.96 1.6 2 15.1 102300 69
2009-07-31 08:12:12 51°13.663 2°55.96 1.7 350 15.1 102300 68
2009-07-31 08:12:18 51°13.664 2°55.96 1.5 356 15.1 102300 68
2009-07-31 08:12:22 51°13.664 2°55.96 1.2 356 15.1 102300 67
2009-07-31 08:12:28 51°13.664 2°55.96 1.9 279 15.1 102300 67
2009-07-31 08:12:32 51°13.664 2°55.96 1.7 350 15.2 102300 67
2009-07-31 08:12:36 51°13.664 2°55.96 1.8 351 15.2 102300 67
2009-07-31 08:12:42 51°13.664 2°55.96 1.7 355 15.2 102300 69
2009-07-31 08:12:48 51°13.664 2°55.96 1.9 346 15.2 102300 69
2009-07-31 08:12:52 51°13.664 2°55.96 1.4 336 15.2 102300 67
2009-07-31 08:12:58 51°13.664 2°55.96 1.4 5 15.2 102300 67
2009-07-31 08:13:02 51°13.664 2°55.96 1.3 1 15.2 102300 67
2009-07-31 08:13:08 51°13.664 2°55.96 1.6 345 15.2 102300 67
2009-07-31 08:13:12 51°13.664 2°55.96 1.6 353 15.2 102300 67
2009-07-31 08:13:18 51°13.664 2°55.96 1.4 347 15.2 102300 67
2009-07-31 08:13:22 51°13.664 2°55.96 1.5 344 15.2 102300 69
2009-07-31 08:13:26 51°13.664 2°55.96 1.3 281 15.2 102300 69
2009-07-31 08:13:33 51°13.664 2°55.96 1.9 350 15.2 102300 66
2009-07-31 08:13:38 51°13.664 2°55.96 1.9 341 15.2 102300 66
2009-07-31 08:13:42 51°13.664 2°55.96 1.7 345 15.2 102300 66
2009-07-31 08:13:46 51°13.664 2°55.96 2.1 337 15.2 102300 66
2009-07-31 08:13:52 51°13.664 2°55.96 2.4 341 15.2 102300 65
2009-07-31 08:13:58 51°13.664 2°55.96 2.3 337 15.2 102300 65
2009-07-31 08:14:02 51°13.664 2°55.96 2.7 336 15.3 102300 67
2009-07-31 08:14:08 51°13.664 2°55.96 2.3 343 15.3 102300 67
2009-07-31 08:14:13 51°13.664 2°55.96 2.3 341 15.3 102300 68
2009-07-31 08:14:18 51°13.664 2°55.96 2.1 339 15.3 102300 68
2009-07-31 08:14:22 51°13.664 2°55.96 2 338 15.3 102300 64
2009-07-31 08:14:28 51°13.664 2°55.96 3.1 345 15.3 102300 64
2009-07-31 08:14:32 51°13.664 2°55.96 2.7 343 15.3 102300 70
2009-07-31 08:14:38 51°13.664 2°55.959 3.1 341 15.3 102300 70
2009-07-31 08:14:42 51°13.664 2°55.959 3.3 343 15.3 102300 68
2009-07-31 08:14:48 51°13.664 2°55.959 3 346 15.3 102300 68
2009-07-31 08:14:52 51°13.664 2°55.959 3 346 15.4 102300 68
2009-07-31 08:14:58 51°13.664 2°55.959 2.3 343 15.4 102300 68
2009-07-31 08:15:02 51°13.664 2°55.959 2.6 341 15.4 102300 68
2009-07-31 08:15:08 51°13.664 2°55.959 2.1 342 15.4 102300 68
2009-07-31 08:15:13 51°13.664 2°55.959 2.5 336 15.4 102290 70
2009-07-31 08:15:16 51°13.664 2°55.959 2.5 338 15.4 102290 70
2009-07-31 08:15:22 51°13.664 2°55.959 2.4 337 15.4 102300 69
2009-07-31 08:15:28 51°13.664 2°55.959 3.1 282 15.4 102300 69
2009-07-31 08:15:33 51°13.664 2°55.959 2.7 342 15.4 102300 68
2009-07-31 08:15:37 51°13.664 2°55.959 3.1 343 15.4 102300 68
2009-07-31 08:15:42 51°13.664 2°55.959 3 342 15.4 102290 69
2009-07-31 08:15:48 51°13.664 2°55.959 2 339 15.4 102290 69
2009-07-31 08:15:52 51°13.664 2°55.959 2.6 343 15.4 102290 66
2009-07-31 08:15:58 51°13.664 2°55.959 2.1 338 15.4 102290 66
2009-07-31 08:16:02 51°13.664 2°55.959 1.8 342 15.4 102290 70
2009-07-31 08:16:08 51°13.664 2°55.959 2.2 343 15.4 102290 70
2009-07-31 08:16:12 51°13.664 2°55.959 2.1 338 15.4 102290 65
2009-07-31 08:16:18 51°13.664 2°55.959 2.1 347 15.4 102290 65
2009-07-31 08:16:22 51°13.664 2°55.959 2.1 347 15.4 102290 68
2009-07-31 08:16:26 51°13.664 2°55.959 1.8 347 15.4 102290 68
2009-07-31 08:16:32 51°13.663 2°55.959 2.3 345 15.4 102290 69
2009-07-31 08:16:38 51°13.663 2°55.959 2.1 350 15.4 102290 69
2009-07-31 08:16:42 51°13.663 2°55.959 2.2 354 15.4 102290 68
2009-07-31 08:16:46 51°13.663 2°55.959 2.1 352 15.4 102290 68
2009-07-31 08:16:52 51°13.663 2°55.959 2.2 347 15.4 102290 67
2009-07-31 08:16:58 51°13.663 2°55.959 2.2 350 15.4 102290 67
2009-07-31 08:17:02 51°13.663 2°55.959 2.6 347 15.4 102290 68
2009-07-31 08:17:08 51°13.663 2°55.959 2.2 350 15.4 102290 68
2009-07-31 08:17:12 51°13.663 2°55.959 2.3 350 15.4 102290 67
2009-07-31 08:17:18 51°13.663 2°55.96 2.2 353 15.4 102290 67
2009-07-31 08:17:22 51°13.663 2°55.96 2.4 354 15.4 102290 69
2009-07-31 08:17:28 51°13.663 2°55.96 2.2 279 15.4 102290 69
2009-07-31 08:17:32 51°13.663 2°55.96 2.5 350 15.4 102290 70
2009-07-31 08:17:38 51°13.663 2°55.96 2.4 354 15.4 102290 70
2009-07-31 08:17:42 51°13.663 2°55.96 2.3 353 15.4 102290 70
2009-07-31 08:17:48 51°13.663 2°55.96 1.7 356 15.4 102290 70
2009-07-31 08:17:52 51°13.663 2°55.96 1.6 356 15.4 102290 69
2009-07-31 08:17:58 51°13.663 2°55.96 1.7 354 15.4 102290 69
2009-07-31 08:18:02 51°13.663 2°55.96 2.3 348 15.4 102290 70
2009-07-31 08:18:08 51°13.663 2°55.96 2 357 15.4 102290 70
2009-07-31 08:18:12 51°13.663 2°55.96 2 357 15.4 102290 69
2009-07-31 08:18:18 51°13.663 2°55.96 1.7 1 15.4 102290 69
2009-07-31 08:18:22 51°13.663 2°55.96 2.2 359 15.4 102290 69
2009-07-31 08:18:28 51°13.663 2°55.96 2.1 355 15.4 102290 69
2009-07-31 08:18:32 51°13.663 2°55.96 2 358 15.4 102290 68
2009-07-31 08:18:36 51°13.663 2°55.96 1.7 360 15.4 102290 68
2009-07-31 08:18:42 51°13.664 2°55.96 1.5 358 15.4 102290 69
2009-07-31 08:18:48 51°13.664 2°55.96 1.5 359 15.4 102290 69
2009-07-31 08:18:52 51°13.664 2°55.96 1.8 359 15.4 102290 70
2009-07-31 08:18:58 51°13.664 2°55.96 2.1 359 15.4 102290 70
2009-07-31 08:19:02 51°13.664 2°55.96 2.2 347 15.4 102290 69
2009-07-31 08:19:06 51°13.664 2°55.96 2 348 15.4 102290 69
2009-07-31 08:19:12 51°13.664 2°55.96 1.7 349 15.4 102290 70
2009-07-31 08:19:17 51°13.664 2°55.96 1.8 349 15.4 102290 70
2009-07-31 08:19:22 51°13.664 2°55.96 1.5 352 15.4 102290 69
2009-07-31 08:19:26 51°13.664 2°55.96 1.8 352 15.4 102290 69
2009-07-31 08:19:32 51°13.665 2°55.96 1.9 348 15.4 102290 70
2009-07-31 08:19:37 51°13.665 2°55.96 2.1 354 15.4 102290 70
2009-07-31 08:19:42 51°13.665 2°55.96 2.1 354 15.4 102290 69
2009-07-31 08:19:47 51°13.665 2°55.96 1.8 352 15.4 102290 69
2009-07-31 08:19:52 51°13.665 2°55.96 1.3 351 15.4 102290 69
2009-07-31 08:19:57 51°13.665 2°55.96 1.9 355 15.4 102290 69
2009-07-31 08:20:02 51°13.665 2°55.96 1.5 348 15.4 102290 69
2009-07-31 08:20:07 51°13.665 2°55.959 1.6 348 15.4 102290 69
2009-07-31 08:20:12 51°13.665 2°55.959 1.5 354 15.5 102290 69
2009-07-31 08:20:17 51°13.665 2°55.959 1.6 351 15.5 102290 69
2009-07-31 08:20:22 51°13.665 2°55.959 2 350 15.5 102290 68
2009-07-31 08:20:28 51°13.665 2°55.959 2 280 15.5 102290 68
2009-07-31 08:20:32 51°13.665 2°55.959 2 360 15.5 102290 68
2009-07-31 08:20:37 51°13.665 2°55.959 2 352 15.5 102290 68
2009-07-31 08:20:41 51°13.665 2°55.959 1.9 342 15.5 102290 68
2009-07-31 08:20:48 51°13.665 2°55.959 2 343 15.5 102290 68
2009-07-31 08:20:52 51°13.665 2°55.959 1.8 345 15.5 102290 70
2009-07-31 08:20:58 51°13.665 2°55.959 1.5 347 15.5 102290 70
2009-07-31 08:21:02 51°13.665 2°55.959 1.6 350 15.5 102290 68
2009-07-31 08:21:08 51°13.665 2°55.959 1.5 2 15.5 102290 68
2009-07-31 08:21:12 51°13.665 2°55.959 0.9 -999 15.5 102290 69
2009-07-31 08:21:17 51°13.665 2°55.959 1.8 348 15.5 102290 69
2009-07-31 08:21:22 51°13.665 2°55.959 2.3 346 15.5 102290 68
2009-07-31 08:21:27 51°13.665 2°55.959 2.3 349 15.5 102290 68
2009-07-31 08:21:32 51°13.665 2°55.959 2.5 350 15.5 102290 69
2009-07-31 08:21:37 51°13.665 2°55.959 2.2 353 15.5 102290 69
2009-07-31 08:21:42 51°13.665 2°55.959 2.4 356 15.5 102290 68
2009-07-31 08:21:48 51°13.665 2°55.959 1.9 356 15.5 102290 68
2009-07-31 08:21:52 51°13.665 2°55.959 1.7 356 15.6 102290 69
2009-07-31 08:21:57 51°13.665 2°55.959 1.9 353 15.6 102290 69
2009-07-31 08:22:02 51°13.665 2°55.959 1.6 356 15.6 102290 69
2009-07-31 08:22:06 51°13.665 2°55.959 2.1 353 15.6 102290 69
2009-07-31 08:22:12 51°13.665 2°55.959 1.7 356 15.5 102290 68
2009-07-31 08:22:17 51°13.665 2°55.959 1.8 356 15.5 102290 68
2009-07-31 08:22:22 51°13.665 2°55.959 1.8 356 15.5 102290 69
2009-07-31 08:22:27 51°13.665 2°55.959 1.5 352 15.5 102290 69
2009-07-31 08:22:32 51°13.665 2°55.959 1.6 352 15.6 102290 69
2009-07-31 08:22:37 51°13.665 2°55.959 1.2 352 15.6 102290 69
2009-07-31 08:22:41 51°13.665 2°55.959 1.3 347 15.6 102290 68
2009-07-31 08:22:48 51°13.665 2°55.959 1.3 341 15.6 102290 68
2009-07-31 08:22:52 51°13.665 2°55.959 1.3 342 15.5 102290 67
2009-07-31 08:22:57 51°13.665 2°55.959 1.5 336 15.5 102290 67
2009-07-31 08:23:01 51°13.665 2°55.959 1.4 340 15.5 102290 67
2009-07-31 08:23:07 51°13.665 2°55.959 2.1 347 15.5 102290 67
2009-07-31 08:23:12 51°13.665 2°55.959 1.9 340 15.5 102290 69
2009-07-31 08:23:17 51°13.665 2°55.959 2.1 336 15.5 102290 69
2009-07-31 08:23:22 51°13.665 2°55.959 1.9 348 15.6 102290 69
2009-07-31 08:23:28 51°13.664 2°55.959 1 347 15.6 102290 69
2009-07-31 08:23:31 51°13.664 2°55.959 1.8 353 15.6 102290 70
2009-07-31 08:23:36 51°13.664 2°55.959 1.5 343 15.6 102290 70
2009-07-31 08:23:42 51°13.664 2°55.959 2.5 344 15.6 102290 70
2009-07-31 08:23:48 51°13.664 2°55.959 2.6 343 15.6 102290 70
2009-07-31 08:23:51 51°13.664 2°55.959 2.7 346 15.6 102290 70
2009-07-31 08:23:57 51°13.664 2°55.959 2.6 347 15.6 102290 70
2009-07-31 08:24:02 51°13.664 2°55.959 2.7 345 15.7 102290 68
2009-07-31 08:24:08 51°13.664 2°55.959 3 346 15.7 102290 68
2009-07-31 08:24:12 51°13.664 2°55.96 3 353 15.7 102290 71
2009-07-31 08:24:17 51°13.664 2°55.96 2 351 15.7 102290 71
2009-07-31 08:24:22 51°13.664 2°55.96 2.5 348 15.7 102290 71
2009-07-31 08:24:26 51°13.663 2°55.96 2.6 348 15.7 102290 71
2009-07-31 08:24:32 51°13.663 2°55.96 2.7 346 15.7 102290 69
2009-07-31 08:24:37 51°13.663 2°55.96 2.2 347 15.7 102290 69
2009-07-31 08:24:42 51°13.663 2°55.96 2.6 347 15.6 102290 69
2009-07-31 08:24:46 51°13.663 2°55.96 2.2 348 15.6 102290 69
2009-07-31 08:24:52 51°13.663 2°55.96 2.4 346 15.6 102290 67
2009-07-31 08:24:57 51°13.663 2°55.96 2.2 351 15.6 102290 67
2009-07-31 08:25:02 51°13.663 2°55.96 2.1 356 15.6 102290 67
2009-07-31 08:25:08 51°13.663 2°55.96 2.4 353 15.6 102290 67
2009-07-31 08:25:12 51°13.663 2°55.96 2.5 351 15.6 102290 69
2009-07-31 08:25:17 51°13.663 2°55.96 2 354 15.6 102290 69
2009-07-31 08:25:22 51°13.663 2°55.96 2 345 15.6 102290 67
2009-07-31 08:25:28 51°13.663 2°55.96 2.1 343 15.6 102290 67
2009-07-31 08:25:32 51°13.662 2°55.96 2.1 342 15.6 102290 67
2009-07-31 08:25:37 51°13.662 2°55.96 2 354 15.6 102290 67
2009-07-31 08:25:42 51°13.662 2°55.96 2.1 351 15.6 102290 68
2009-07-31 08:25:48 51°13.662 2°55.96 2.2 350 15.6 102290 68
2009-07-31 08:25:52 51°13.662 2°55.96 2.4 354 15.6 102290 69
2009-07-31 08:25:58 51°13.662 2°55.96 2.1 353 15.6 102290 69
2009-07-31 08:26:02 51°13.662 2°55.96 2.6 353 15.6 102290 68
2009-07-31 08:26:08 51°13.662 2°55.96 2.7 355 15.6 102290 68
2009-07-31 08:26:12 51°13.661 2°55.96 2.6 355 15.7 102290 69
2009-07-31 08:26:16 51°13.661 2°55.96 2.1 355 15.7 102290 69
2009-07-31 08:26:22 51°13.661 2°55.96 2.5 357 15.7 102290 67
2009-07-31 08:26:28 51°13.661 2°55.96 2.4 357 15.7 102290 67
2009-07-31 08:26:32 51°13.661 2°55.96 2.5 -999 15.6 102290 66
2009-07-31 08:26:38 51°13.661 2°55.96 1.9 1 15.6 102290 66
2009-07-31 08:26:42 51°13.661 2°55.959 2.2 2 15.6 102290 67
2009-07-31 08:26:48 51°13.661 2°55.959 2.5 1 15.6 102290 67
2009-07-31 08:26:52 51°13.66 2°55.959 2.4 2 15.6 102290 67
2009-07-31 08:26:58 51°13.66 2°55.96 2.3 2 15.6 102290 67
2009-07-31 08:27:02 51°13.66 2°55.96 2.6 4 15.6 102290 67
2009-07-31 08:27:06 51°13.66 2°55.96 2.2 2 15.6 102290 67
2009-07-31 08:27:12 51°13.66 2°55.96 2.1 3 15.6 102290 67
2009-07-31 08:27:18 51°13.66 2°55.96 2.4 3 15.6 102290 67
2009-07-31 08:27:22 51°13.661 2°55.96 1.9 3 15.6 102290 67
2009-07-31 08:27:26 51°13.661 2°55.96 1.7 9 15.6 102290 67
2009-07-31 08:27:32 51°13.661 2°55.96 1.6 8 15.6 102290 67
2009-07-31 08:27:38 51°13.661 2°55.96 2.4 2 15.6 102290 67
2009-07-31 08:27:42 51°13.661 2°55.96 2.3 2 15.6 102290 66
2009-07-31 08:27:48 51°13.661 2°55.96 2.5 360 15.6 102290 66
2009-07-31 08:27:52 51°13.661 2°55.959 2 10 15.6 102290 68
2009-07-31 08:27:58 51°13.661 2°55.959 2.3 6 15.6 102290 68
2009-07-31 08:28:02 51°13.661 2°55.959 2.5 -999 15.6 102290 68
2009-07-31 08:28:08 51°13.661 2°55.959 2.5 357 15.6 102290 68
2009-07-31 08:28:12 51°13.661 2°55.959 1.9 356 15.7 102290 66
2009-07-31 08:28:18 51°13.661 2°55.959 1.9 1 15.7 102290 66
2009-07-31 08:28:22 51°13.661 2°55.959 2 359 15.7 102290 68
2009-07-31 08:28:28 51°13.661 2°55.959 2 14 15.7 102290 68
2009-07-31 08:28:32 51°13.661 2°55.959 2.2 17 15.7 102290 67
2009-07-31 08:28:37 51°13.661 2°55.959 1.8 7 15.7 102290 67
2009-07-31 08:28:42 51°13.661 2°55.959 1.9 10 15.7 102290 68
2009-07-31 08:28:48 51°13.661 2°55.959 2.4 11 15.7 102290 68
2009-07-31 08:28:52 51°13.661 2°55.959 2 9 15.7 102290 68
2009-07-31 08:28:58 51°13.661 2°55.959 1.5 2 15.7 102290 68
2009-07-31 08:29:02 51°13.661 2°55.959 2.3 356 15.7 102290 67
2009-07-31 08:29:08 51°13.661 2°55.959 2.1 359 15.7 102290 67
2009-07-31 08:29:12 51°13.661 2°55.959 1.9 356 15.7 102290 68
2009-07-31 08:29:18 51°13.661 2°55.959 2 360 15.7 102290 68
2009-07-31 08:29:22 51°13.661 2°55.959 2 2 15.7 102300 67
2009-07-31 08:29:28 51°13.661 2°55.959 1.6 5 15.7 102300 67
2009-07-31 08:29:32 51°13.661 2°55.959 2 9 15.8 102290 69
2009-07-31 08:29:38 51°13.661 2°55.959 2 -999 15.8 102290 69
2009-07-31 08:29:42 51°13.661 2°55.959 1.9 350 15.8 102300 69
2009-07-31 08:29:48 51°13.661 2°55.959 1.8 353 15.8 102300 69
2009-07-31 08:29:52 51°13.661 2°55.959 1.6 3 15.8 102300 69
2009-07-31 08:29:58 51°13.661 2°55.959 2.2 6 15.8 102300 69
2009-07-31 08:30:02 51°13.661 2°55.959 2.2 -999 15.8 102300 68
2009-07-31 08:30:08 51°13.661 2°55.959 2.3 3 15.8 102300 68
2009-07-31 08:30:12 51°13.661 2°55.959 2.2 1 15.8 102300 67
2009-07-31 08:30:18 51°13.661 2°55.959 1.4 358 15.8 102300 67
2009-07-31 08:30:22 51°13.661 2°55.959 2 355 15.8 102290 68
2009-07-31 08:30:28 51°13.661 2°55.959 2 1 15.8 102290 68
2009-07-31 08:30:32 51°13.661 2°55.959 1.8 2 15.8 102300 69
2009-07-31 08:30:38 51°13.661 2°55.959 2.1 2 15.8 102300 69
2009-07-31 08:30:42 51°13.661 2°55.959 1.7 2 15.8 102290 68
2009-07-31 08:30:48 51°13.661 2°55.959 1.6 359 15.8 102290 68
2009-07-31 08:30:52 51°13.66 2°55.959 1.3 354 15.8 102300 70
2009-07-31 08:30:58 51°13.66 2°55.959 1.6 354 15.8 102300 70
2009-07-31 08:31:02 51°13.66 2°55.959 1.9 349 15.8 102290 68
2009-07-31 08:31:08 51°13.66 2°55.959 1.6 348 15.8 102290 68
2009-07-31 08:31:12 51°13.66 2°55.959 1.8 352 15.9 102300 68
2009-07-31 08:31:18 51°13.66 2°55.959 1.6 358 15.9 102300 68
2009-07-31 08:31:22 51°13.66 2°55.959 1.4 -999 15.9 102300 68
2009-07-31 08:31:28 51°13.66 2°55.959 2 350 15.9 102300 68
2009-07-31 08:31:32 51°13.66 2°55.959 2.1 354 15.9 102300 68
2009-07-31 08:31:37 51°13.66 2°55.959 3.1 353 15.9 102300 68
2009-07-31 08:31:42 51°13.66 2°55.959 2.1 5 15.9 102300 67
2009-07-31 08:31:48 51°13.66 2°55.959 2.3 355 15.9 102300 67
2009-07-31 08:31:52 51°13.66 2°55.959 2.3 4 15.9 102300 68
2009-07-31 08:31:56 51°13.66 2°55.959 2.1 4 15.9 102300 68
2009-07-31 08:32:02 51°13.66 2°55.959 2 2 15.9 102300 67
2009-07-31 08:32:08 51°13.66 2°55.959 2 2 15.9 102300 67
2009-07-31 08:32:12 51°13.66 2°55.959 2.4 1 15.9 102300 68
2009-07-31 08:32:18 51°13.66 2°55.959 2.3 1 15.9 102300 68
2009-07-31 08:32:22 51°13.66 2°55.959 2.1 358 16 102300 67
2009-07-31 08:32:28 51°13.66 2°55.959 2.1 358 16 102300 67
2009-07-31 08:32:32 51°13.66 2°55.959 2.2 358 15.9 102300 66
2009-07-31 08:32:38 51°13.66 2°55.959 2.4 358 15.9 102300 66
2009-07-31 08:32:42 51°13.66 2°55.959 2.3 360 15.9 102300 64
2009-07-31 08:32:48 51°13.66 2°55.959 2.2 3 15.9 102300 64
2009-07-31 08:32:52 51°13.66 2°55.959 2.2 2 15.9 102300 63
2009-07-31 08:32:58 51°13.66 2°55.959 2 2 15.9 102300 63
2009-07-31 08:33:02 51°13.66 2°55.959 1.9 356 15.9 102300 66
2009-07-31 08:33:06 51°13.66 2°55.959 1.6 350 15.9 102300 66
2009-07-31 08:33:12 51°13.66 2°55.959 1.6 354 15.9 102300 67
2009-07-31 08:33:18 51°13.66 2°55.959 1.6 359 15.9 102300 67
2009-07-31 08:33:22 51°13.66 2°55.959 1.6 2 15.9 102300 68
2009-07-31 08:33:28 51°13.66 2°55.958 1.7 355 15.9 102300 68
2009-07-31 08:33:32 51°13.66 2°55.958 1.9 -999 15.9 102290 69
2009-07-31 08:33:38 51°13.66 2°55.958 2.1 352 15.9 102290 69
2009-07-31 08:33:42 51°13.661 2°55.958 1.6 353 15.9 102300 66
2009-07-31 08:33:48 51°13.661 2°55.959 1.7 8 15.9 102300 66
2009-07-31 08:33:52 51°13.661 2°55.959 1.3 10 15.9 102300 67
2009-07-31 08:33:58 51°13.661 2°55.959 1.5 352 15.9 102300 67
2009-07-31 08:34:02 51°13.661 2°55.959 1.1 359 16 102290 69
2009-07-31 08:34:08 51°13.661 2°55.959 1.3 360 16 102290 69
2009-07-31 08:34:12 51°13.661 2°55.959 2 11 16 102300 67
2009-07-31 08:34:18 51°13.661 2°55.959 1.7 10 16 102300 67
2009-07-31 08:34:22 51°13.661 2°55.959 1.6 11 16 102300 67
2009-07-31 08:34:28 51°13.661 2°55.959 1.8 2 16 102300 67
2009-07-31 08:34:32 51°13.661 2°55.959 1.9 1 16 102300 68
2009-07-31 08:34:38 51°13.661 2°55.959 2 2 16 102300 68
2009-07-31 08:34:42 51°13.661 2°55.959 2.3 2 16 102300 67
2009-07-31 08:34:48 51°13.661 2°55.958 2.1 5 16 102300 67
2009-07-31 08:34:52 51°13.661 2°55.959 2.2 4 16 102290 68
2009-07-31 08:34:57 51°13.661 2°55.959 1.9 -999 16 102290 68
2009-07-31 08:35:02 51°13.661 2°55.959 1.4 7 16 102300 66
2009-07-31 08:35:08 51°13.661 2°55.959 1.5 356 16 102300 66
2009-07-31 08:35:13 51°13.661 2°55.959 1.6 2 16 102300 66
2009-07-31 08:35:18 51°13.661 2°55.959 1.6 352 16 102300 66
2009-07-31 08:35:23 51°13.661 2°55.959 2.2 349 16 102300 68
2009-07-31 08:35:28 51°13.662 2°55.959 2.5 349 16 102300 68
2009-07-31 08:35:33 51°13.662 2°55.959 3.3 351 16.1 102290 64
2009-07-31 08:35:38 51°13.662 2°55.959 2.9 347 16.1 102290 64
2009-07-31 08:35:42 51°13.662 2°55.959 2.8 353 16.1 102300 66
2009-07-31 08:35:47 51°13.662 2°55.959 2.2 352 16.1 102300 66
2009-07-31 08:35:53 51°13.662 2°55.959 2.6 349 16.1 102300 67
2009-07-31 08:35:58 51°13.662 2°55.959 2.7 355 16.1 102300 67
2009-07-31 08:36:02 51°13.662 2°55.959 1.9 357 16.1 102290 66
2009-07-31 08:36:08 51°13.662 2°55.959 2 350 16.1 102290 66
2009-07-31 08:36:13 51°13.662 2°55.959 2.1 354 16.1 102290 66
2009-07-31 08:36:18 51°13.662 2°55.959 1.8 349 16.1 102290 66
2009-07-31 08:36:22 51°13.662 2°55.959 1.9 358 16.1 102300 67
2009-07-31 08:36:28 51°13.661 2°55.959 2 354 16.1 102300 67
2009-07-31 08:36:33 51°13.661 2°55.959 2.2 359 16.1 102290 65
2009-07-31 08:36:38 51°13.661 2°55.959 2.1 354 16.1 102290 65
2009-07-31 08:36:42 51°13.661 2°55.959 2 355 16.1 102300 65
2009-07-31 08:36:48 51°13.661 2°55.959 2.5 359 16.1 102300 65
2009-07-31 08:36:53 51°13.662 2°55.959 2.5 359 16.1 102300 68
2009-07-31 08:36:58 51°13.662 2°55.959 2.3 -999 16.1 102300 68
2009-07-31 08:37:03 51°13.662 2°55.959 2 2 16.1 102300 68
2009-07-31 08:37:08 51°13.662 2°55.959 2.2 1 16.1 102300 68
2009-07-31 08:37:13 51°13.662 2°55.959 2 1 16.1 102300 68
2009-07-31 08:37:18 51°13.662 2°55.959 2 358 16.1 102300 68
2009-07-31 08:37:23 51°13.662 2°55.959 1.9 3 16.1 102290 67
2009-07-31 08:37:28 51°13.662 2°55.959 2.1 11 16.1 102290 67
2009-07-31 08:37:33 51°13.662 2°55.959 1.5 6 16.1 102300 68
2009-07-31 08:37:38 51°13.662 2°55.959 1.8 359 16.1 102300 68
2009-07-31 08:37:42 51°13.662 2°55.959 2.1 354 16.1 102290 68
2009-07-31 08:37:48 51°13.662 2°55.959 2.1 360 16.1 102290 68
2009-07-31 08:37:52 51°13.662 2°55.959 3.1 349 16.1 102300 68
2009-07-31 08:37:58 51°13.662 2°55.959 3.1 344 16.1 102300 68
2009-07-31 08:38:02 51°13.662 2°55.959 3.1 346 16.1 102290 67
2009-07-31 08:38:08 51°13.662 2°55.959 2.7 349 16.1 102290 67
2009-07-31 08:38:13 51°13.662 2°55.959 2.3 351 16.1 102300 66
2009-07-31 08:38:18 51°13.662 2°55.959 2.7 335 16.1 102300 66
2009-07-31 08:38:22 51°13.662 2°55.959 1.9 345 16.1 102300 68
2009-07-31 08:38:28 51°13.662 2°55.959 2 352 16.1 102300 68